Regional Weather Roundup
Issued by NWS Charleston, SC

Current Version | Previous Version | Graphics & Text | Print | Product List | Glossary On
Versions: 1 2 3 4 5 6 7 8 9 10 11 12 13 14 15 16 17 18 19 20 21 22 23 24 25 26 27 28 29 30 31 32 33 34 35 36 37 38 39 40 41 42 43 44 45 46 47 48 49 50
000
ASUS42 KCHS 301625
RWRCHS

REGIONAL WEATHER ROUNDUP
NATIONAL WEATHER SERVICE CHARLESTON SC
1200 PM EDT WED JUL 30 2014

NOTE: "FAIR" INDICATES FEW OR NO CLOUDS BELOW 12,000 FEET WITH NO
SIGNIFICANT WEATHER AND/OR OBSTRUCTIONS TO VISIBILITY.

NOT ALL STATIONS ARE QUALITY CONTROLLED BY THE NATIONAL
WEATHER SERVICE. USE DATA WITH CAUTION...ESPECIALLY
DEWPOINT OBSERVATIONS.

SCZ027-030-031-034>040-042>050-301700-
...SOUTH CAROLINA...

CITY           SKY/WX    TMP DP  RH WIND       PRES   REMARKS
N CHARLESTON   PTSUNNY   84  71  65 SE7       30.02S
WATERFRONT PRK   N/A     82 N/A N/A E12         N/A
FORT JOHNSON   NOT AVBL
MOUNT PLEASANT FAIR      82  73  74 E3        30.02S
JOHNS ISLAND   PTSUNNY   82  70  65 E9        30.02S
PINOPOLIS        N/A     88  70  55 CALM      29.96R HX  92
MONCKS CORNER    N/A     86  73  66 SE3       30.02S HX  93
SUMMERVILLE    PTSUNNY   86  70  58 E3        30.03S HX  90
BEAUFORT MCAS  PTSUNNY   87  67  51 SE7       30.01R HX  90
BEAUFORT ARPT  FAIR      84  72  65 SE8       30.00S
HILTON HEAD IS PTSUNNY   84  73  70 NE9       30.01S HX  91
GEORGETOWN     NOT AVBL
WALTERBORO     PTSUNNY   88  63  42 SE8       30.02S
ORANGEBURG     FAIR      84  67  56 NE7       30.03S
BARNWELL       FAIR      84  70  61 E7        30.02F
AIKEN          FAIR      82  64  54 N5        30.07S
MANNING        PTSUNNY   84  70  61 CALM      30.02F
KINGSTREE      NOT AVBL
COLUMBIA       FAIR      85  60  42 N3        30.03F
SUMTER         FAIR      81  69  65 E6        30.03S
FLORENCE       FAIR      84  67  56 VRB5      30.04S
MYRTLE BEACH   PTSUNNY   84  70  61 E12       30.04R
N MYRTLE BEACH FAIR      84  65  52 E14       30.03S

$$

GAZ063-065-086>088-099>101-113>116-118-119-134-136>141-150-301700-
...GEORGIA...

CITY           SKY/WX    TMP DP  RH WIND       PRES   REMARKS
SAVANNAH ARPT  CLOUDY    86  67  52 SE10      30.00S
HUNTER AAF     FAIR      86  70  58 E9        29.98R HX  90
FORT STEWART   CLOUDY    80  69  69 SW5       30.00R
STATESBORO     NOT AVBL
SYLVANIA       FAIR      85  75  72 E3        30.02S HX  92
CLAXTON        PTSUNNY   86  70  58 CALM      30.01S HX  90
THOMSON        FAIR      83  68  60 CALM      30.08F
AUGUSTA-BUSH   FAIR      82  65  56 E3        30.02S
AUGUSTA-DANIEL FAIR      84  62  47 S6        30.04S
SWAINSBORO     CLOUDY    88  64  45 E3        30.02F
VIDALIA          N/A     88  61  40 N3        30.01F
ALMA           FAIR      87  58  37 SW3       30.00F
WAYCROSS       FAIR      92  62  37 NE6       29.99F HX  92
JESUP          FAIR      88  70  55 NE6       30.00S HX  92
BRUNSWICK      FAIR      90  70  51 E7        29.98F HX  95
SAINT SIMONS   FAIR      87  71  58 E8        29.98S HX  93

$$

SCZ027-028-034-036>038-045-046-048>050-GAZ119-141-301700-
...LAKE AND SUPPLEMENTAL COASTAL OBSERVATIONS...

STATION/POSITION TIME  TEMP    WIND        PRES    WAVE   SWELL
                       AIR SEA DIR/SP/G            HT/PER HT/PER/DIR
                 (UTC) (F)     (DEG/KT/KT) (MB)    (FT/S) (FT/S/D)
UPR LAKE MARION  NOT AVBL
WINYAH BAY       1500   81      80/  8     1016.0S
LAKE MURRAY      1500   79      50/  2/  7 1016.9R
ACE BASIN NERRS  1600   85      90/  3     1016.0S
FORT PULASKI     1600   83      70/ 13/ 15 1015.9F
SAPELO ISLAND    1500   89     100/  7     1016.0S

$$

ANZ835-935-AMZ111-154-330-350-352-354-374-450-454-472-301700-
...C-MAN AND BUOY OBSERVATIONS...

STATION/POSITION TIME  TEMP    WIND        PRES    WAVE   SWELL
                       AIR SEA DIR/SP/G            HT/PER HT/PER/DIR
                 (UTC) (F)     (DEG/KT/KT) (MB)    (FT/S) (FT/S/D)
FOLLY BEACH CMAN 1600   82      80/ 11/ 13 1016.7F
BUOY 41004       1600   82 84   60/ 12/ 14 1015.7S   2/ 9   2/ 9
BUOY 41008       1600   83 85   90/  6/  8 1015.3R   2/ 9   2/100/ 9
5E ST. MARYS GA  1600      85                N/A     2/ 9
FRYING PAN BUOY  NOT AVBL
BUOY 41025       1600          VRB 14/ 17  1017.3F   4/ 7   2/120/ 9
CAPE LOOKOUT NC  1600   78      50/ 13/ 15 1017.7F
BUOY 41002       1548   78 80  190/ 12/ 14 1015.7F   5/ 7   3/200/ 7
BUOY 41010       1600   84 85  260/  4/  6 1015.7F   2/ 5   2/240/ 5
BUOY 41012       NOT AVBL
ST AUGUSTINE FL  1600   87     270/  7/  9 1015.8F
CAPERS NEARSHORE 1500   82      90/ 12/ 14   N/A
FRIPP NEARSHORE  NOT AVBL


$$



USA.gov is the U.S. government's official web portal to all federal, state and local government web resources and services.